Home > Time Zones > World Clock > Weather > Iran > Yazd > Past weeks

Flag for Iran Weather past 2 weeks in Yazd, Iran

Now
79 °F

Clear.


Feels Like: 78 °F
Forecast: 68 / 97 °F
Wind: 9 mph from Northwest

Location: Yazd Airport

Current Time: Aug 4, 2015 at 8:38:53 AM

Latest Report: Aug 4, 2015 at 7:30 AM


Visibility: 10 mi

Pressure: 30.04 "Hg (26.14 "Hg at 1218m altitude)

Humidity: 23%

Dew point: 37 °F

Location of YazdLocation

Historic Weather in Yazd — Graph

°F

Yazd temperature yesterday

Maximum temperature yesterday: 97 °F (at 4:30 PM)
Minimum temperature yesterday: 75 °F (at 4:30 AM)
Average temperature yesterday: 87 °F

Past Weeks' High & Low Weather Summary

 TemperatureHumidityPressure
High104 °F (Jul 28, 4:00 PM)60% (Jul 21, 6:30 AM)30.07 "Hg (Jul 21, 6:30 AM)
Low70 °F (Jul 21, 6:30 AM)5% (Jul 27, 3:30 PM)29.77 "Hg (Jul 20, 3:30 PM)
Average88 °F15%29.94 "Hg
* Reported Jul 20 7:30 AM — Aug 4 7:30 AM, Yazd, Weather by CustomWeather, © 2015

Note: Actual official high and low records may vary slightly from our data, if they occured in-between our weather recording intervals... More about our weather records

Advertising

Yazd weather history for previous 24 hours

 ConditionsComfort  
Time TempWeatherWind HumidityBarometerVisibility
7:30 AM
Tue, Aug 4
79 °FClear.9 mph23%30.04 "Hg10 mi
7:00 AM79 °FClear.12 mph21%30.04 "Hg10 mi
6:30 AM79 °FClear.12 mph21%30.04 "Hg10 mi
6:00 AM77 °FClear.12 mph21%30.04 "Hg10 mi
5:30 AM77 °FClear.12 mph15%30.04 "Hg10 mi
4:30 AM75 °FClear.9 mph11%30.01 "Hg10 mi
3:30 AM77 °FClear.7 mph11%30.01 "Hg10 mi
2:30 AM75 °FClear.2 mph11%30.04 "Hg10 mi
1:30 AM79 °FClear.5 mph10%30.04 "Hg10 mi
12:30 AM79 °FPassing clouds.5 mph11%30.04 "HgN/A
11:30 PM
Mon, Aug 3
81 °FPassing clouds.2 mph10%30.04 "HgN/A
11:00 PM82 °FPassing clouds.2 mph9%30.04 "HgN/A
10:30 PM84 °FPassing clouds.2 mph9%30.04 "HgN/A
10:00 PM86 °FClear.2 mph8%30.04 "Hg10 mi
9:30 PM88 °FClear.7 mph7%30.04 "Hg10 mi
9:00 PM88 °FSunny.7 mph7%30.04 "Hg10 mi
8:30 PM90 °FSunny.9 mph7%30.01 "Hg10 mi
8:00 PM91 °FSunny.9 mph7%30.01 "Hg10 mi
7:30 PM93 °FSunny.12 mph7%30.01 "Hg10 mi
7:00 PM93 °FSunny.12 mph7%29.98 "Hg10 mi
6:30 PM95 °FSunny.12 mph6%29.98 "Hg10 mi
6:00 PM95 °FSunny.14 mph7%29.98 "Hg10 mi
5:30 PM95 °FSunny.14 mph6%29.98 "Hg10 mi
4:30 PM97 °FSunny.12 mph6%29.98 "Hg10 mi
3:30 PM95 °FSunny.14 mph6%29.98 "Hg10 mi
2:30 PM95 °FSunny.16 mph7%30.01 "Hg10 mi
1:30 PM95 °FDuststorm.21 mph8%30.01 "HgN/A
1:00 PM95 °FSunny.16 mph8%30.01 "Hg10 mi
12:30 PM93 °FSunny.7 mph9%30.04 "Hg10 mi
12:00 PM93 °FSunny.5 mph9%30.04 "Hg10 mi
11:30 AM91 °FSunny.12 mph9%30.04 "Hg10 mi
11:00 AM91 °FSunny.12 mph12%30.04 "Hg10 mi
10:30 AM90 °FSunny.12 mph15%30.07 "Hg10 mi
10:00 AM86 °FSunny.12 mph19%30.07 "Hg10 mi
9:30 AM84 °FSunny.14 mph20%30.07 "Hg10 mi
8:00 AM81 °FSunny.12 mph21%30.04 "Hg10 mi
Weather by CustomWeather, © 2015

See weather overviewHow to use our weather pages